Time,TemperatureF,DewpointF,PressureIn,WindDirection,WindDirectionDegrees,WindSpeedMPH,WindSpeedGustMPH,Humidity,HourlyPrecipIn,Conditions,Clouds,dailyrainin,SoftwareType,DateUTC
2013-04-04 00:00:00,33.7,16.5,30.26,North,5,2.0,7.0,49,0.00,,,0.00,Wunderground v.1.15,2013-04-04 04:00:00,
2013-04-04 00:09:00,33.8,16.0,30.27,North,351,2.0,13.0,49,0.00,,,0.00,weatherlink.com 1.10,2013-04-04 04:09:00,
2013-04-04 00:10:00,33.8,16.6,30.26,North,351,4.0,4.0,49,0.00,,,0.00,Wunderground v.1.15,2013-04-04 04:10:00,
2013-04-04 00:24:00,33.8,16.0,30.26,North,355,5.0,14.0,49,0.00,,,0.00,weatherlink.com 1.10,2013-04-04 04:24:00,
2013-04-04 00:30:00,33.8,17.1,30.26,NNE,30,4.0,4.0,50,0.00,,,0.00,Wunderground v.1.15,2013-04-04 04:30:00,
2013-04-04 00:39:00,33.7,16.0,30.26,NNE,32,10.0,13.0,49,0.00,,,0.00,weatherlink.com 1.10,2013-04-04 04:39:00,
2013-04-04 00:50:00,33.7,16.5,30.25,NNE,26,3.0,5.0,49,0.00,,,0.00,Wunderground v.1.15,2013-04-04 04:50:00,
2013-04-04 00:55:00,33.6,17.0,30.25,ENE,66,0.0,12.0,50,0.00,,,0.00,weatherlink.com 1.10,2013-04-04 04:55:00,
2013-04-04 01:00:00,33.4,16.7,30.25,South,183,1.0,1.0,50,0.00,,,0.00,Wunderground v.1.15,2013-04-04 05:00:00,
2013-04-04 01:10:00,33.4,16.7,30.25,NNW,333,3.0,6.0,50,0.00,,,0.00,Wunderground v.1.15,2013-04-04 05:10:00,
2013-04-04 01:20:00,33.4,16.7,30.25,West,271,3.0,4.0,50,0.00,,,0.00,Wunderground v.1.15,2013-04-04 05:20:00,
2013-04-04 01:30:00,33.4,16.7,30.25,NW,304,4.0,4.0,50,0.00,,,0.00,Wunderground v.1.15,2013-04-04 05:30:00,
2013-04-04 01:40:00,33.4,16.7,30.25,NE,49,4.0,4.0,50,0.00,,,0.00,Wunderground v.1.15,2013-04-04 05:40:00,
2013-04-04 01:50:00,33.4,16.7,30.25,NNE,27,6.0,6.0,50,0.00,,,0.00,Wunderground v.1.15,2013-04-04 05:50:00,
2013-04-04 02:00:00,33.2,16.5,30.25,NNW,348,3.0,3.0,50,0.00,,,0.00,Wunderground v.1.15,2013-04-04 06:00:00,
2013-04-04 02:10:00,33.1,16.5,30.24,NNE,26,4.0,4.0,50,0.00,,,0.00,Wunderground v.1.15,2013-04-04 06:10:00,
2013-04-04 02:20:00,33.0,16.4,30.25,NNW,343,5.0,5.0,50,0.00,,,0.00,Wunderground v.1.15,2013-04-04 06:20:00,
2013-04-04 02:25:00,33.0,16.0,30.25,NNW,331,6.0,11.0,50,0.00,,,0.00,weatherlink.com 1.10,2013-04-04 06:25:00,
2013-04-04 02:40:00,32.9,16.3,30.25,NNW,342,5.0,5.0,50,0.00,,,0.00,Wunderground v.1.15,2013-04-04 06:40:00,
2013-04-04 02:50:00,32.8,16.6,30.25,WNW,283,3.0,3.0,51,0.00,,,0.00,Wunderground v.1.15,2013-04-04 06:50:00,
2013-04-04 02:55:00,32.8,16.0,30.25,North,360,0.0,8.0,51,0.00,,,0.00,weatherlink.com 1.10,2013-04-04 06:55:00,
2013-04-04 03:00:00,32.6,16.4,30.26,NNE,23,2.0,4.0,51,0.00,,,0.00,Wunderground v.1.15,2013-04-04 07:00:00,
2013-04-04 03:10:00,32.6,16.9,30.26,WNW,297,3.0,3.0,52,0.00,,,0.00,Wunderground v.1.15,2013-04-04 07:10:00,
2013-04-04 03:20:00,32.4,16.7,30.27,NW,324,2.0,2.0,52,0.00,,,0.00,Wunderground v.1.15,2013-04-04 07:20:00,
2013-04-04 03:26:00,32.3,17.0,30.27,NNW,331,2.0,7.0,53,0.00,,,0.00,weatherlink.com 1.10,2013-04-04 07:26:00,
2013-04-04 03:40:00,32.1,16.9,30.27,NW,314,0.0,0.0,53,0.00,,,0.00,Wunderground v.1.15,2013-04-04 07:40:00,
2013-04-04 03:50:00,31.8,17.0,30.28,NW,309,0.0,0.0,54,0.00,,,0.00,Wunderground v.1.15,2013-04-04 07:50:00,
2013-04-04 03:57:00,31.6,17.0,30.29,NW,309,0.0,3.0,54,0.00,,,0.00,weatherlink.com 1.10,2013-04-04 07:57:00,
2013-04-04 04:10:00,31.2,17.3,30.28,WNW,283,0.0,0.0,56,0.00,,,0.00,Wunderground v.1.15,2013-04-04 08:10:00,
2013-04-04 04:20:00,30.8,16.9,30.28,WNW,283,0.0,0.0,56,0.00,,,0.00,Wunderground v.1.15,2013-04-04 08:20:00,
2013-04-04 04:27:00,30.6,17.0,30.29,WNW,283,0.0,2.0,57,0.00,,,0.00,weatherlink.com 1.10,2013-04-04 08:27:00,
2013-04-04 04:40:00,30.2,17.2,30.30,West,281,1.0,2.0,58,0.00,,,0.00,Wunderground v.1.15,2013-04-04 08:40:00,
2013-04-04 04:50:00,30.1,17.1,30.30,West,281,0.0,0.0,58,0.00,,,0.00,Wunderground v.1.15,2013-04-04 08:50:00,
2013-04-04 04:57:00,30.1,17.0,30.30,West,281,0.0,0.0,59,0.00,,,0.00,weatherlink.com 1.10,2013-04-04 08:57:00,
2013-04-04 05:10:00,30.0,17.4,30.31,West,281,0.0,0.0,59,0.00,,,0.00,Wunderground v.1.15,2013-04-04 09:10:00,
2013-04-04 05:20:00,30.3,17.7,30.31,NW,306,1.0,1.0,59,0.00,,,0.00,Wunderground v.1.15,2013-04-04 09:20:00,
2013-04-04 05:27:00,30.4,17.0,30.31,NW,306,0.0,2.0,59,0.00,,,0.00,weatherlink.com 1.10,2013-04-04 09:27:00,
2013-04-04 05:40:00,29.9,17.3,30.31,NW,306,0.0,0.0,59,0.00,,,0.00,Wunderground v.1.15,2013-04-04 09:40:00,
2013-04-04 05:50:00,29.5,17.7,30.32,NW,306,0.0,0.0,61,0.00,,,0.00,Wunderground v.1.15,2013-04-04 09:50:00,
2013-04-04 05:56:00,29.3,18.0,30.32,NW,306,0.0,0.0,62,0.00,,,0.00,weatherlink.com 1.10,2013-04-04 09:56:00,
2013-04-04 06:10:00,29.4,17.6,30.33,WNW,302,0.0,0.0,61,0.00,,,0.00,Wunderground v.1.15,2013-04-04 10:10:00,
2013-04-04 06:20:00,29.6,17.8,30.34,WNW,302,0.0,0.0,61,0.00,,,0.00,Wunderground v.1.15,2013-04-04 10:20:00,
2013-04-04 06:30:00,29.5,18.4,30.34,WNW,302,0.0,0.0,63,0.00,,,0.00,Wunderground v.1.15,2013-04-04 10:30:00,
2013-04-04 06:40:00,29.0,18.3,30.34,WNW,302,0.0,0.0,64,0.00,,,0.00,Wunderground v.1.15,2013-04-04 10:40:00,
2013-04-04 06:50:00,28.7,18.1,30.34,WNW,302,0.0,0.0,64,0.00,,,0.00,Wunderground v.1.15,2013-04-04 10:50:00,
2013-04-04 06:57:00,28.6,18.0,30.35,WNW,302,0.0,0.0,65,0.00,,,0.00,weatherlink.com 1.10,2013-04-04 10:57:00,
2013-04-04 07:10:00,29.3,18.3,30.35,NW,305,0.0,0.0,63,0.00,,,0.00,Wunderground v.1.15,2013-04-04 11:10:00,
2013-04-04 07:20:00,29.8,18.7,30.35,WNW,284,0.0,0.0,63,0.00,,,0.00,Wunderground v.1.15,2013-04-04 11:20:00,
2013-04-04 07:28:00,30.1,18.0,30.35,WNW,289,2.0,4.0,62,0.00,,,0.00,weatherlink.com 1.10,2013-04-04 11:28:00,
2013-04-04 07:40:00,30.7,19.2,30.36,WNW,284,0.0,0.0,62,0.00,,,0.00,Wunderground v.1.15,2013-04-04 11:40:00,
2013-04-04 07:50:00,31.2,19.3,30.36,West,275,0.0,0.0,61,0.00,,,0.00,Wunderground v.1.15,2013-04-04 11:50:00,
2013-04-04 07:58:00,31.7,19.0,30.37,SW,234,0.0,5.0,60,0.00,,,0.00,weatherlink.com 1.10,2013-04-04 11:58:00,
2013-04-04 08:10:00,32.4,19.7,30.35,North,11,1.0,1.0,59,0.00,,,0.00,Wunderground v.1.15,2013-04-04 12:10:00,
2013-04-04 08:20:00,32.9,19.3,30.36,WNW,298,1.0,1.0,57,0.00,,,0.00,Wunderground v.1.15,2013-04-04 12:20:00,
2013-04-04 08:28:00,33.2,19.0,30.36,NW,325,0.0,7.0,57,0.00,,,0.00,weatherlink.com 1.10,2013-04-04 12:28:00,
2013-04-04 08:40:00,33.5,19.9,30.35,North,11,1.0,1.0,57,0.00,,,0.00,Wunderground v.1.15,2013-04-04 12:40:00,
2013-04-04 08:50:00,34.0,19.9,30.35,West,260,1.0,1.0,56,0.00,,,0.00,Wunderground v.1.15,2013-04-04 12:50:00,
2013-04-04 08:58:00,34.4,20.0,30.34,NNE,24,3.0,6.0,55,0.00,,,0.00,weatherlink.com 1.10,2013-04-04 12:58:00,
2013-04-04 09:10:00,34.5,20.0,30.34,WNW,294,1.0,1.0,55,0.00,,,0.00,Wunderground v.1.15,2013-04-04 13:10:00,
2013-04-04 09:20:00,35.1,20.5,30.34,West,277,0.0,0.0,55,0.00,,,0.00,Wunderground v.1.15,2013-04-04 13:20:00,
2013-04-04 09:28:00,35.8,20.0,30.34,NW,313,1.0,4.0,54,0.00,,,0.00,weatherlink.com 1.10,2013-04-04 13:28:00,
2013-04-04 09:40:00,36.3,20.3,30.34,WNW,284,1.0,1.0,52,0.00,,,0.00,Wunderground v.1.15,2013-04-04 13:40:00,
2013-04-04 09:50:00,36.5,20.5,30.33,WSW,246,1.0,2.0,52,0.00,,,0.00,Wunderground v.1.15,2013-04-04 13:50:00,
2013-04-04 10:00:00,37.0,21.0,30.34,NE,45,3.0,5.0,52,0.00,,,0.00,weatherlink.com 1.10,2013-04-04 14:00:00,
2013-04-04 10:10:00,38.0,21.5,30.34,WSW,242,1.0,2.0,51,0.00,,,0.00,Wunderground v.1.15,2013-04-04 14:10:00,
2013-04-04 10:20:00,38.4,21.4,30.33,South,182,2.0,2.0,50,0.00,,,0.00,Wunderground v.1.15,2013-04-04 14:20:00,
2013-04-04 10:29:00,38.5,21.0,30.33,SW,230,2.0,7.0,49,0.00,,,0.00,weatherlink.com 1.10,2013-04-04 14:29:00,
2013-04-04 10:40:00,38.7,21.6,30.33,SW,225,2.0,2.0,50,0.00,,,0.00,Wunderground v.1.15,2013-04-04 14:40:00,
2013-04-04 10:50:00,39.1,21.0,30.32,South,188,4.0,4.0,48,0.00,,,0.00,Wunderground v.1.15,2013-04-04 14:50:00,
2013-04-04 10:59:00,39.5,21.0,30.32,SW,234,0.0,7.0,48,0.00,,,0.00,weatherlink.com 1.10,2013-04-04 14:59:00,
2013-04-04 11:10:00,40.4,21.2,30.32,SW,221,3.0,3.0,46,0.00,,,0.00,Wunderground v.1.15,2013-04-04 15:10:00,
2013-04-04 11:15:00,40.5,22.0,30.32,West,271,2.0,6.0,47,0.00,,,0.00,weatherlink.com 1.10,2013-04-04 15:15:00,
2013-04-04 11:29:00,41.7,22.0,30.31,WNW,286,0.0,8.0,45,0.00,,,0.00,weatherlink.com 1.10,2013-04-04 15:29:00,
2013-04-04 11:40:00,42.4,22.0,30.31,East,101,2.0,5.0,44,0.00,,,0.00,Wunderground v.1.15,2013-04-04 15:40:00,
2013-04-04 11:45:00,42.5,21.0,30.30,SW,223,3.0,7.0,43,0.00,,,0.00,weatherlink.com 1.10,2013-04-04 15:45:00,
2013-04-04 11:59:00,43.7,23.0,30.30,SSW,197,3.0,5.0,45,0.00,,,0.00,weatherlink.com 1.10,2013-04-04 15:59:00,
2013-04-04 12:10:00,44.7,21.2,30.28,SW,236,2.0,7.0,39,0.00,,,0.00,Wunderground v.1.15,2013-04-04 16:10:00,
2013-04-04 12:20:00,44.7,21.8,30.28,WNW,294,2.0,5.0,40,0.00,,,0.00,Wunderground v.1.15,2013-04-04 16:20:00,
2013-04-04 12:29:00,45.2,21.0,30.28,WNW,288,1.0,6.0,39,0.00,,,0.00,weatherlink.com 1.10,2013-04-04 16:29:00,
2013-04-04 12:40:00,45.6,21.4,30.27,SSW,208,3.0,7.0,38,0.00,,,0.00,Wunderground v.1.15,2013-04-04 16:40:00,
2013-04-04 12:45:00,45.8,22.0,30.26,West,263,3.0,7.0,39,0.00,,,0.00,weatherlink.com 1.10,2013-04-04 16:45:00,
2013-04-04 13:00:00,46.8,21.2,30.26,SSW,196,3.0,7.0,36,0.00,,,0.00,Wunderground v.1.15,2013-04-04 17:00:00,
2013-04-04 13:10:00,47.5,23.1,30.26,SSW,206,4.0,5.0,38,0.00,,,0.00,Wunderground v.1.15,2013-04-04 17:10:00,
2013-04-04 13:15:00,47.4,21.0,30.25,South,188,2.0,8.0,36,0.00,,,0.00,weatherlink.com 1.10,2013-04-04 17:15:00,
2013-04-04 13:30:00,48.3,22.5,30.25,SSW,205,3.0,5.0,36,0.00,,,0.00,Wunderground v.1.15,2013-04-04 17:30:00,
2013-04-04 13:40:00,49.0,22.5,30.23,South,171,3.0,3.0,35,0.00,,,0.00,Wunderground v.1.15,2013-04-04 17:40:00,
2013-04-04 13:46:00,48.9,21.0,30.23,SSE,167,5.0,9.0,34,0.00,,,0.00,weatherlink.com 1.10,2013-04-04 17:46:00,
2013-04-04 14:00:00,49.0,21.1,30.22,WSW,242,5.0,5.0,33,0.00,,,0.00,Wunderground v.1.15,2013-04-04 18:00:00,
2013-04-04 14:10:00,50.3,22.3,30.22,NNW,348,3.0,4.0,33,0.00,,,0.00,Wunderground v.1.15,2013-04-04 18:10:00,
2013-04-04 14:16:00,50.5,21.0,30.21,SSW,210,5.0,9.0,32,0.00,,,0.00,weatherlink.com 1.10,2013-04-04 18:16:00,
2013-04-04 14:30:00,51.1,21.5,30.21,SW,234,4.0,4.0,31,0.00,,,0.00,Wunderground v.1.15,2013-04-04 18:30:00,
2013-04-04 14:40:00,51.0,22.1,30.20,SSW,202,3.0,3.0,32,0.00,,,0.00,Wunderground v.1.15,2013-04-04 18:40:00,
2013-04-04 14:50:00,51.1,22.2,30.19,South,169,5.0,5.0,32,0.00,,,0.00,Wunderground v.1.15,2013-04-04 18:50:00,
2013-04-04 15:00:00,51.5,23.3,30.18,SW,215,3.0,3.0,33,0.00,,,0.00,Wunderground v.1.15,2013-04-04 19:00:00,
2013-04-04 15:10:00,52.1,23.1,30.17,SSW,192,3.0,5.0,32,0.00,,,0.00,Wunderground v.1.15,2013-04-04 19:10:00,
2013-04-04 15:17:00,52.4,23.0,30.17,SSW,212,6.0,12.0,32,0.00,,,0.00,weatherlink.com 1.10,2013-04-04 19:17:00,
2013-04-04 15:30:00,52.4,22.6,30.16,SSW,199,5.0,5.0,31,0.00,,,0.00,Wunderground v.1.15,2013-04-04 19:30:00,
2013-04-04 15:40:00,53.2,23.3,30.16,WSW,248,4.0,4.0,31,0.00,,,0.00,Wunderground v.1.15,2013-04-04 19:40:00,
2013-04-04 15:47:00,53.5,23.0,30.15,WSW,247,2.0,7.0,30,0.00,,,0.00,weatherlink.com 1.10,2013-04-04 19:47:00,
2013-04-04 16:00:00,53.4,22.7,30.15,SW,221,5.0,6.0,30,0.00,,,0.00,Wunderground v.1.15,2013-04-04 20:00:00,
2013-04-04 16:10:00,53.4,22.7,30.14,SSW,205,5.0,5.0,30,0.00,,,0.00,Wunderground v.1.15,2013-04-04 20:10:00,
2013-04-04 16:18:00,53.3,24.0,30.14,SW,234,4.0,10.0,32,0.00,,,0.00,weatherlink.com 1.10,2013-04-04 20:18:00,
2013-04-04 16:30:00,53.8,22.2,30.14,SW,227,4.0,4.0,29,0.00,,,0.00,Wunderground v.1.15,2013-04-04 20:30:00,
2013-04-04 16:40:00,53.6,22.9,30.13,SW,216,5.0,6.0,30,0.00,,,0.00,Wunderground v.1.15,2013-04-04 20:40:00,
2013-04-04 16:47:00,53.7,23.0,30.13,South,169,6.0,8.0,30,0.00,,,0.00,weatherlink.com 1.10,2013-04-04 20:47:00,
2013-04-04 17:00:00,51.7,26.2,30.13,South,190,6.0,6.0,37,0.00,,,0.00,Wunderground v.1.15,2013-04-04 21:00:00,
2013-04-04 17:10:00,51.0,26.3,30.13,South,185,5.0,13.0,38,0.00,,,0.00,Wunderground v.1.15,2013-04-04 21:10:00,
2013-04-04 17:18:00,50.4,26.0,30.13,SSW,195,3.0,13.0,39,0.00,,,0.00,weatherlink.com 1.10,2013-04-04 21:18:00,
2013-04-04 17:30:00,50.1,26.7,30.12,SSE,161,6.0,6.0,40,0.00,,,0.00,Wunderground v.1.15,2013-04-04 21:30:00,
2013-04-04 17:40:00,49.7,26.9,30.12,SSW,194,5.0,7.0,41,0.00,,,0.00,Wunderground v.1.15,2013-04-04 21:40:00,
2013-04-04 17:48:00,49.3,27.0,30.12,SSW,205,3.0,10.0,42,0.00,,,0.00,weatherlink.com 1.10,2013-04-04 21:48:00,
2013-04-04 18:00:00,48.9,27.9,30.12,South,190,4.0,4.0,44,0.00,,,0.00,Wunderground v.1.15,2013-04-04 22:00:00,
2013-04-04 18:10:00,48.2,27.8,30.12,SSW,198,4.0,4.0,45,0.00,,,0.00,Wunderground v.1.15,2013-04-04 22:10:00,
2013-04-04 18:18:00,47.8,27.0,30.12,South,190,6.0,9.0,45,0.00,,,0.00,weatherlink.com 1.10,2013-04-04 22:18:00,
2013-04-04 18:30:00,47.1,27.4,30.13,SSW,203,5.0,6.0,46,0.00,,,0.00,Wunderground v.1.15,2013-04-04 22:30:00,
2013-04-04 18:40:00,46.8,27.6,30.13,South,174,6.0,6.0,47,0.00,,,0.00,Wunderground v.1.15,2013-04-04 22:40:00,
2013-04-04 18:48:00,46.6,28.0,30.13,SSW,209,6.0,9.0,48,0.00,,,0.00,weatherlink.com 1.10,2013-04-04 22:48:00,
2013-04-04 19:00:00,46.3,28.2,30.13,SSW,192,5.0,5.0,49,0.00,,,0.00,Wunderground v.1.15,2013-04-04 23:00:00,
2013-04-04 19:10:00,45.9,28.3,30.13,SSW,205,5.0,5.0,50,0.00,,,0.00,Wunderground v.1.15,2013-04-04 23:10:00,
2013-04-04 19:18:00,45.6,28.0,30.13,SSW,198,3.0,9.0,51,0.00,,,0.00,weatherlink.com 1.10,2013-04-04 23:18:00,
2013-04-04 19:30:00,45.4,28.8,30.13,SSW,201,3.0,3.0,52,0.00,,,0.00,Wunderground v.1.15,2013-04-04 23:30:00,
2013-04-04 19:40:00,45.2,29.1,30.13,SSW,212,3.0,3.0,53,0.00,,,0.00,Wunderground v.1.15,2013-04-04 23:40:00,
2013-04-04 19:48:00,45.1,29.0,30.12,SW,225,3.0,6.0,54,0.00,,,0.00,weatherlink.com 1.10,2013-04-04 23:48:00,
2013-04-04 20:00:00,45.0,29.8,30.12,SSW,192,2.0,2.0,55,0.00,,,0.00,Wunderground v.1.15,2013-04-05 00:00:00,
2013-04-04 20:10:00,44.9,30.1,30.12,SSW,200,1.0,3.0,56,0.00,,,0.00,Wunderground v.1.15,2013-04-05 00:10:00,
2013-04-04 20:19:00,44.7,30.0,30.11,SSW,199,3.0,4.0,57,0.00,,,0.00,weatherlink.com 1.10,2013-04-05 00:19:00,
2013-04-04 20:30:00,44.6,31.6,30.10,SSW,194,2.0,2.0,60,0.00,,,0.00,Wunderground v.1.15,2013-04-05 00:30:00,
2013-04-04 20:40:00,44.5,30.6,30.10,South,190,1.0,1.0,58,0.00,,,0.00,Wunderground v.1.15,2013-04-05 00:40:00,
2013-04-04 20:49:00,44.4,31.0,30.10,South,189,0.0,4.0,59,0.00,,,0.00,weatherlink.com 1.10,2013-04-05 00:49:00,
2013-04-04 21:04:00,44.1,31.0,30.10,South,188,2.0,4.0,60,0.00,,,0.00,weatherlink.com 1.10,2013-04-05 01:04:00,
2013-04-04 21:34:00,43.2,31.0,30.09,South,188,2.0,5.0,63,0.00,,,0.00,weatherlink.com 1.10,2013-04-05 01:34:00,
2013-04-04 21:49:00,43.1,31.0,30.09,South,186,0.0,3.0,63,0.00,,,0.00,weatherlink.com 1.10,2013-04-05 01:49:00,
2013-04-04 22:19:00,43.4,31.0,30.08,SSW,200,2.0,4.0,61,0.00,,,0.00,weatherlink.com 1.10,2013-04-05 02:19:00,
2013-04-04 22:34:00,43.6,30.0,30.08,SW,232,4.0,5.0,58,0.00,,,0.00,weatherlink.com 1.10,2013-04-05 02:34:00,
2013-04-04 23:04:00,44.1,25.0,30.08,SW,229,4.0,8.0,48,0.00,,,0.00,weatherlink.com 1.10,2013-04-05 03:04:00,
2013-04-04 23:19:00,44.2,23.0,30.08,WSW,240,4.0,9.0,43,0.00,,,0.00,weatherlink.com 1.10,2013-04-05 03:19:00,
2013-04-04 23:34:00,44.1,22.0,30.06,SW,229,2.0,6.0,42,0.00,,,0.00,weatherlink.com 1.10,2013-04-05 03:34:00,
2013-04-04 23:49:00,43.8,21.0,30.06,SSW,213,0.0,6.0,41,0.00,,,0.00,weatherlink.com 1.10,2013-04-05 03:49:00,